When you browse on this site, cookies collect data to enhance your experience and personalize the content and advertising you see.
Visit our Privacy Policy to learn more. By continuing to use the site, you agree to this use of cookies and data.
  • In Portugal
  • List of Countries
  • For 7 days
  • Water Temperature
  • Weather Map
  • Weather Widgets
  • user-avatar
    Login

    Hourly Weather Osinka

    Today, 26 August, Monday

    Time Temperature Precipitation Wind Pressure Humidity
    00:00 +10°C° 0 mm 5 mps 751 mmHg 93%
    01:00 +9°C° 0 mm 5 mps 751 mmHg 92%
    02:00 +9°C° 0.1 mm 5 mps 752 mmHg 91%
    03:00 +9°C° 0.1 mm 5 mps 752 mmHg 91%
    04:00 +8°C° 0 mm 5 mps 753 mmHg 91%
    05:00 +8°C° 0 mm 5 mps 753 mmHg 89%
    06:00 +8°C° 0 mm 5 mps 753 mmHg 87%
    07:00 +8°C° 0 mm 5 mps 754 mmHg 85%
    08:00 +8°C° 0 mm 6 mps 754 mmHg 81%
    09:00 +9°C° 0 mm 6 mps 755 mmHg 77%
    10:00 +10°C° 0 mm 6 mps 755 mmHg 73%
    11:00 +11°C° 0 mm 6 mps 755 mmHg 70%
    12:00 +13°C° 0 mm 6 mps 755 mmHg 66%
    13:00 +14°C° 0 mm 5 mps 755 mmHg 63%
    14:00 +14°C° 0 mm 5 mps 755 mmHg 62%
    15:00 +14°C° 0 mm 5 mps 755 mmHg 61%
    16:00 +14°C° 0 mm 4 mps 756 mmHg 61%
    17:00 +14°C° 0 mm 4 mps 755 mmHg 63%
    18:00 +13°C° 0 mm 3 mps 755 mmHg 65%
    19:00 +13°C° 0 mm 2 mps 755 mmHg 68%
    20:00 +12°C° 0 mm 2 mps 755 mmHg 70%
    21:00 +12°C° 0 mm 2 mps 755 mmHg 71%
    22:00 +10°C° 0 mm 2 mps 755 mmHg 73%
    23:00 +10°C° 0 mm 2 mps 755 mmHg 76%

    Tomorrow, 27 August, Tuesday

    Time Temperature Precipitation Wind Pressure Humidity
    00:00 +10°C° 0 mm 2 mps 754 mmHg 78%
    01:00 +10°C° 0 mm 2 mps 754 mmHg 81%
    02:00 +9°C° 0 mm 2 mps 753 mmHg 83%
    03:00 +9°C° 0 mm 2 mps 753 mmHg 84%
    04:00 +9°C° 0 mm 2 mps 753 mmHg 86%
    05:00 +9°C° 0.1 mm 3 mps 752 mmHg 87%
    06:00 +9°C° 0.1 mm 3 mps 751 mmHg 88%
    07:00 +8°C° 0.1 mm 4 mps 751 mmHg 89%
    08:00 +10°C° 0.1 mm 4 mps 750 mmHg 89%
    09:00 +10°C° 0.1 mm 4 mps 749 mmHg 90%
    10:00 +9°C° 0.1 mm 5 mps 749 mmHg 91%
    11:00 +10°C° 0.2 mm 5 mps 748 mmHg 92%
    12:00 +10°C° 0.2 mm 5 mps 748 mmHg 93%
    13:00 +10°C° 0.2 mm 6 mps 747 mmHg 94%
    14:00 +10°C° 0.9 mm 6 mps 747 mmHg 94%
    15:00 +10°C° 0.9 mm 5 mps 746 mmHg 95%
    16:00 +10°C° 0.9 mm 5 mps 746 mmHg 96%
    17:00 +12°C° 0.8 mm 5 mps 745 mmHg 96%
    18:00 +12°C° 0.8 mm 5 mps 745 mmHg 96%
    19:00 +12°C° 0.8 mm 4 mps 744 mmHg 96%
    20:00 +11°C° 0.1 mm 4 mps 744 mmHg 96%
    21:00 +11°C° 0.1 mm 3 mps 744 mmHg 97%
    22:00 +11°C° 0.1 mm 3 mps 743 mmHg 98%
    23:00 +10°C° 0 mm 2 mps 743 mmHg 98%

    Day after tomorrow, 28 August, Wednesday

    Time Temperature Precipitation Wind Pressure Humidity
    00:00 +10°C° 0 mm 2 mps 743 mmHg 98%
    01:00 +9°C° 0 mm 2 mps 743 mmHg 98%
    02:00 +10°C° 0.1 mm 1 mps 743 mmHg 98%
    03:00 +10°C° 0.1 mm 1 mps 743 mmHg 98%
    04:00 +10°C° 0.1 mm 1 mps 743 mmHg 98%
    05:00 +10°C° 0 mm 1 mps 743 mmHg 97%
    06:00 +10°C° 0 mm 1 mps 743 mmHg 96%
    07:00 +9°C° 0 mm 0 mps 743 mmHg 96%
    08:00 +11°C° 0 mm 0 mps 744 mmHg 91%
    09:00 +12°C° 0 mm 0 mps 744 mmHg 87%
    10:00 +13°C° 0 mm 0 mps 744 mmHg 83%
    11:00 +14°C° 0.1 mm 1 mps 744 mmHg 81%
    12:00 +15°C° 0.1 mm 1 mps 744 mmHg 79%
    13:00 +15°C° 0.1 mm 2 mps 744 mmHg 77%
    14:00 +15°C° 0.3 mm 2 mps 745 mmHg 79%
    15:00 +14°C° 0.3 mm 3 mps 745 mmHg 80%
    16:00 +16°C° 0.3 mm 3 mps 745 mmHg 82%
    17:00 +14°C° 0.5 mm 4 mps 746 mmHg 86%
    18:00 +13°C° 0.5 mm 5 mps 746 mmHg 90%
    19:00 +11°C° 0.5 mm 6 mps 747 mmHg 93%
    20:00 +10°C° 0 mm 6 mps 747 mmHg 93%
    21:00 +9°C° 0 mm 6 mps 747 mmHg 93%
    22:00 +8°C° 0 mm 6 mps 748 mmHg 93%
    23:00 +8°C° 0.1 mm 6 mps 748 mmHg 93%

    29 August, Thursday

    Time Temperature Precipitation Wind Pressure Humidity
    00:00 +7°C° 0.1 mm 6 mps 748 mmHg 94%
    01:00 +7°C° 0.1 mm 6 mps 748 mmHg 94%
    02:00 +7°C° 0.3 mm 6 mps 748 mmHg 94%
    03:00 +7°C° 0.3 mm 6 mps 749 mmHg 95%
    04:00 +7°C° 0.3 mm 6 mps 749 mmHg 95%
    05:00 +7°C° 0.6 mm 6 mps 749 mmHg 95%
    06:00 +7°C° 0.6 mm 6 mps 749 mmHg 95%
    07:00 +7°C° 0.6 mm 6 mps 750 mmHg 95%
    08:00 +7°C° 0.6 mm 6 mps 750 mmHg 95%
    09:00 +7°C° 0.6 mm 6 mps 750 mmHg 95%
    10:00 +7°C° 0.6 mm 6 mps 750 mmHg 95%
    11:00 +7°C° 0.2 mm 6 mps 751 mmHg 95%
    12:00 +7°C° 0.2 mm 6 mps 751 mmHg 94%
    13:00 +7°C° 0.2 mm 5 mps 751 mmHg 94%
    14:00 +7°C° 0.3 mm 5 mps 751 mmHg 94%
    15:00 +7°C° 0.3 mm 5 mps 752 mmHg 94%
    16:00 +7°C° 0.3 mm 5 mps 752 mmHg 94%
    17:00 +7°C° 0.5 mm 5 mps 752 mmHg 95%
    18:00 +7°C° 0.5 mm 5 mps 752 mmHg 95%
    19:00 +6°C° 0.5 mm 5 mps 753 mmHg 95%
    20:00 +6°C° 0.5 mm 4 mps 753 mmHg 96%
    21:00 +6°C° 0.5 mm 4 mps 753 mmHg 96%
    22:00 +7°C° 0.5 mm 3 mps 753 mmHg 96%
    23:00 +7°C° 0.5 mm 3 mps 753 mmHg 96%

    30 August, Friday

    Time Temperature Precipitation Wind Pressure Humidity
    00:00 +7°C° 0.5 mm 3 mps 753 mmHg 96%
    01:00 +6°C° 0.5 mm 4 mps 753 mmHg 95%
    02:00 +7°C° 0 mm 3 mps 753 mmHg 95%
    03:00 +5°C° 0 mm 3 mps 753 mmHg 95%
    04:00 +5°C° 0 mm 3 mps 753 mmHg 94%
    05:00 +5°C° 0 mm 3 mps 753 mmHg 94%
    06:00 +5°C° 0 mm 3 mps 753 mmHg 93%
    07:00 +5°C° 0 mm 4 mps 753 mmHg 92%
    08:00 +6°C° 0 mm 4 mps 753 mmHg 88%
    09:00 +7°C° 0 mm 4 mps 753 mmHg 84%
    10:00 +8°C° 0 mm 4 mps 753 mmHg 80%
    11:00 +10°C° 0 mm 4 mps 753 mmHg 74%
    12:00 +11°C° 0 mm 4 mps 753 mmHg 68%
    13:00 +12°C° 0 mm 5 mps 753 mmHg 62%
    14:00 +12°C° 0 mm 4 mps 753 mmHg 62%
    15:00 +12°C° 0 mm 4 mps 753 mmHg 61%
    16:00 +12°C° 0 mm 4 mps 753 mmHg 61%
    17:00 +11°C° 0 mm 4 mps 753 mmHg 65%
    18:00 +10°C° 0 mm 3 mps 753 mmHg 70%
    19:00 +9°C° 0 mm 2 mps 753 mmHg 75%
    20:00 +8°C° 0 mm 2 mps 753 mmHg 76%
    21:00 +8°C° 0 mm 2 mps 753 mmHg 77%
    22:00 +7°C° 0 mm 2 mps 753 mmHg 78%
    23:00 +6°C° 0 mm 2 mps 753 mmHg 81%

    31 August, Saturday

    Time Temperature Precipitation Wind Pressure Humidity
    00:00 +5°C° 0 mm 2 mps 753 mmHg 84%
    01:00 +5°C° 0 mm 2 mps 753 mmHg 87%
    02:00 +5°C° 0 mm 2 mps 753 mmHg 86%
    03:00 +5°C° 0 mm 2 mps 753 mmHg 84%
    04:00 +5°C° 0 mm 2 mps 753 mmHg 83%
    05:00 +5°C° 0 mm 2 mps 753 mmHg 84%
    06:00 +6°C° 0 mm 2 mps 753 mmHg 85%
    07:00 +6°C° 0 mm 2 mps 753 mmHg 85%
    08:00 +7°C° 0 mm 3 mps 752 mmHg 84%
    09:00 +8°C° 0 mm 3 mps 752 mmHg 84%
    10:00 +9°C° 0 mm 3 mps 752 mmHg 83%
    11:00 +9°C° 0 mm 3 mps 752 mmHg 83%
    12:00 +10°C° 0 mm 3 mps 752 mmHg 83%
    13:00 +10°C° 0 mm 3 mps 752 mmHg 83%
    14:00 +11°C° 0 mm 3 mps 752 mmHg 78%
    15:00 +12°C° 0 mm 3 mps 752 mmHg 73%
    16:00 +13°C° 0 mm 3 mps 751 mmHg 68%
    17:00 +12°C° 0.1 mm 3 mps 751 mmHg 74%
    18:00 +11°C° 0.1 mm 3 mps 751 mmHg 79%
    19:00 +10°C° 0.1 mm 3 mps 751 mmHg 84%
    20:00 +9°C° 0 mm 2 mps 751 mmHg 86%
    21:00 +9°C° 0 mm 2 mps 751 mmHg 87%
    22:00 +8°C° 0 mm 2 mps 751 mmHg 89%
    23:00 +8°C° 0 mm 2 mps 751 mmHg 87%
    Show more